Location: Bannatyne
(13.0833°N, 59.5333°W)
Time: 12:10:43
(UTC+00:00)

Transit 2A - Visible Passes

Search period start: 22 January 2020 00:00
Search period end: 01 February 2020 00:00
Orbit: 601 x 958 km, 66.7° (Epoch: 21 January)

Date Brightness Start Highest point End Pass type
(mag) Time Alt. Az. Time Alt. Az. Time Alt. Az.
22 Jan 7.7 10:01:45 10° N 10:06:32 35° ENE 10:11:45 10° SE visible
22 Jan 6.4 22:45:01 10° S 22:49:25 34° ESE 22:51:43 21° ENE visible
23 Jan 8.6 00:30:48 10° W 00:32:16 11° WNW 00:32:16 11° WNW visible
23 Jan 8.4 09:28:25 10° NNE 09:32:26 22° ENE 09:36:45 10° ESE visible
23 Jan 7.1 22:11:50 10° SSE 22:15:19 20° ESE 22:18:37 10° ENE visible
23 Jan 7.9 23:54:43 10° WSW 23:58:12 20° WNW 00:00:01 16° NW visible
24 Jan 8.7 08:55:49 10° NE 08:58:18 13° ENE 09:00:54 10° E visible
24 Jan 7.1 23:19:45 10° SW 23:24:06 35° WNW 23:27:46 12° N visible
25 Jan 6.2 10:01:54 10° NNW 10:07:12 77° WSW 10:13:04 10° SSE visible
25 Jan 6.1 22:45:16 10° SSW 22:50:01 64° WNW 22:54:26 10° NNE visible
26 Jan 6.5 09:27:51 10° NNW 09:33:07 66° ENE 09:38:56 10° SSE visible
26 Jan 5.7 22:11:09 10° SSW 22:15:57 70° ESE 22:20:23 10° NNE visible
27 Jan 7.4 08:54:05 10° N 08:59:02 40° ENE 09:04:27 10° SE visible
28 Jan 8.1 08:21:18 13° NNE 08:24:57 25° ENE 08:29:34 10° ESE visible
28 Jan 8.2 22:47:31 10° WSW 22:50:40 18° WNW 22:53:41 10° NNW visible
29 Jan 8.6 07:49:05 13° NE 07:50:49 15° ENE 07:53:59 10° E visible
29 Jan 6.6 09:29:38 15° NW 09:33:48 42° WSW 09:39:22 10° S visible
29 Jan 7.6 22:12:24 10° SW 22:16:33 31° WNW 22:20:29 10° N visible
30 Jan 6.1 08:57:27 36° NW 08:59:42 70° WSW 09:05:37 10° SSE visible
31 Jan 6.2 08:25:18 71° NE 08:25:37 73° ENE 08:31:32 10° SSE visible
